Location: Ajisawe
(8.4333°N, 4.3833°E)
Time: 22:31:15
(UTC+00:00)

Vanguard 1 Rocket - Pass Details

Date: 23 April 2021
Orbit: 652 x 4224 km, 34.3° (Epoch: 10 May)

Event Time Altitude Azimuth Distance (km) Brightness Sun altitude
Rises 21:10:02 0° 278° (W) 4,014 11.3 -47.0°
Reaches altitude 10° 21:12:38 10° 267° (W) 3,375 10.7 -47.5°
Enters shadow 21:16:45 26° 239° (WSW) 2,817 9.9 -48.4°
